When you browse on this site, cookies collect data to enhance your experience and personalize the content and advertising you see.
Visit our Privacy Policy to learn more. By continuing to use the site, you agree to this use of cookies and data.
  • In Portugal
  • List of Countries
  • For 7 days
  • Water Temperature
  • Satellite Maps
  • Weather Map
  • Weather Widgets
  • user-avatar
    Login

    Hourly Weather Kofu

    Today, 25 March, Monday

    Time Temperature Precipitation Wind Pressure Humidity
    00:00 0°C° 0 mm 1 mps 670 mmHg 50%
    01:00 0°C° 0 mm 1 mps 670 mmHg 50%
    02:00 -1°C° 0 mm 1 mps 670 mmHg 50%
    03:00 0°C° 0 mm 1 mps 670 mmHg 47%
    04:00 0°C° 0 mm 1 mps 670 mmHg 50%
    05:00 0°C° 0 mm 1 mps 670 mmHg 53%
    06:00 0°C° 0 mm 1 mps 670 mmHg 56%
    07:00 +2°C° 0 mm 1 mps 671 mmHg 47%
    08:00 +4°C° 0 mm 2 mps 672 mmHg 39%
    09:00 +7°C° 0 mm 2 mps 672 mmHg 30%
    10:00 +8°C° 0 mm 2 mps 672 mmHg 28%
    11:00 +9°C° 0 mm 3 mps 672 mmHg 26%
    12:00 +11°C° 0 mm 3 mps 672 mmHg 23%
    13:00 +11°C° 0 mm 3 mps 672 mmHg 23%
    14:00 +11°C° 0 mm 3 mps 672 mmHg 23%
    15:00 +10°C° 0 mm 3 mps 671 mmHg 24%
    16:00 +9°C° 0 mm 3 mps 671 mmHg 30%
    17:00 +7°C° 0 mm 2 mps 670 mmHg 37%
    18:00 +5°C° 0 mm 2 mps 670 mmHg 43%
    19:00 +4°C° 0 mm 2 mps 670 mmHg 44%
    20:00 +4°C° 0 mm 2 mps 670 mmHg 44%
    21:00 +4°C° 0 mm 1 mps 670 mmHg 45%
    22:00 +4°C° 0 mm 1 mps 670 mmHg 45%
    23:00 +3°C° 0 mm 1 mps 670 mmHg 46%

    Tomorrow, 26 March, Tuesday

    Time Temperature Precipitation Wind Pressure Humidity
    00:00 +2°C° 0 mm 1 mps 670 mmHg 46%
    01:00 +3°C° 0 mm 1 mps 669 mmHg 46%
    02:00 +3°C° 0 mm 1 mps 669 mmHg 46%
    03:00 +3°C° 0 mm 1 mps 669 mmHg 46%
    04:00 +3°C° 0 mm 1 mps 669 mmHg 44%
    05:00 +3°C° 0 mm 1 mps 669 mmHg 43%
    06:00 +3°C° 0 mm 1 mps 668 mmHg 42%
    07:00 +5°C° 0 mm 1 mps 669 mmHg 39%
    08:00 +8°C° 0 mm 1 mps 669 mmHg 37%
    09:00 +10°C° 0 mm 1 mps 670 mmHg 35%
    10:00 +10°C° 0 mm 2 mps 669 mmHg 34%
    11:00 +12°C° 0 mm 2 mps 669 mmHg 33%
    12:00 +13°C° 0 mm 2 mps 669 mmHg 32%
    13:00 +13°C° 0 mm 2 mps 668 mmHg 30%
    14:00 +14°C° 0 mm 2 mps 668 mmHg 29%
    15:00 +14°C° 0 mm 2 mps 667 mmHg 27%
    16:00 +12°C° 0 mm 2 mps 667 mmHg 36%
    17:00 +8°C° 0 mm 2 mps 667 mmHg 44%
    18:00 +7°C° 0 mm 1 mps 666 mmHg 53%
    19:00 +5°C° 0 mm 2 mps 667 mmHg 57%
    20:00 +4°C° 0 mm 2 mps 667 mmHg 60%
    21:00 +3°C° 0 mm 2 mps 668 mmHg 64%
    22:00 +3°C° 0 mm 2 mps 668 mmHg 65%
    23:00 +2°C° 0 mm 2 mps 668 mmHg 66%

    Day after tomorrow, 27 March, Wednesday

    Time Temperature Precipitation Wind Pressure Humidity
    00:00 +1°C° 0 mm 2 mps 669 mmHg 66%
    01:00 +1°C° 0 mm 2 mps 669 mmHg 64%
    02:00 +1°C° 0 mm 2 mps 669 mmHg 62%
    03:00 +1°C° 0 mm 2 mps 669 mmHg 60%
    04:00 +1°C° 0 mm 2 mps 669 mmHg 55%
    05:00 +1°C° 0 mm 2 mps 670 mmHg 50%
    06:00 +1°C° 0 mm 1 mps 670 mmHg 45%
    07:00 +3°C° 0 mm 2 mps 671 mmHg 39%
    08:00 +6°C° 0 mm 2 mps 672 mmHg 33%
    09:00 +9°C° 0 mm 2 mps 673 mmHg 27%
    10:00 +10°C° 0 mm 2 mps 673 mmHg 25%
    11:00 +11°C° 0 mm 3 mps 672 mmHg 24%
    12:00 +12°C° 0 mm 3 mps 672 mmHg 22%
    13:00 +12°C° 0 mm 3 mps 671 mmHg 24%
    14:00 +11°C° 0 mm 4 mps 671 mmHg 27%
    15:00 +11°C° 0 mm 4 mps 670 mmHg 29%
    16:00 +9°C° 0 mm 3 mps 669 mmHg 37%
    17:00 +8°C° 0 mm 3 mps 669 mmHg 46%
    18:00 +6°C° 0 mm 2 mps 668 mmHg 54%
    19:00 +5°C° 0 mm 2 mps 668 mmHg 56%
    20:00 +5°C° 0 mm 2 mps 668 mmHg 57%
    21:00 +4°C° 0 mm 2 mps 668 mmHg 59%
    22:00 +4°C° 0 mm 2 mps 667 mmHg 59%
    23:00 +4°C° 0 mm 2 mps 667 mmHg 58%

    28 March, Thursday

    Time Temperature Precipitation Wind Pressure Humidity
    00:00 +4°C° 0 mm 2 mps 666 mmHg 58%
    01:00 +3°C° 0 mm 2 mps 665 mmHg 62%
    02:00 +3°C° 0 mm 2 mps 665 mmHg 66%
    03:00 +3°C° 0 mm 2 mps 664 mmHg 71%
    04:00 +3°C° 0.1 mm 2 mps 664 mmHg 73%
    05:00 +4°C° 0.1 mm 2 mps 664 mmHg 75%
    06:00 +4°C° 0.1 mm 2 mps 664 mmHg 77%
    07:00 +4°C° 0.4 mm 3 mps 664 mmHg 75%
    08:00 +5°C° 0.4 mm 4 mps 664 mmHg 73%
    09:00 +6°C° 0.4 mm 4 mps 664 mmHg 71%
    10:00 +7°C° 0.3 mm 4 mps 664 mmHg 69%
    11:00 +7°C° 0.3 mm 4 mps 664 mmHg 66%
    12:00 +7°C° 0.3 mm 4 mps 664 mmHg 63%
    13:00 +7°C° 0.1 mm 4 mps 664 mmHg 58%
    14:00 +7°C° 0.1 mm 4 mps 665 mmHg 53%
    15:00 +7°C° 0.1 mm 4 mps 665 mmHg 48%
    16:00 +6°C° 0 mm 4 mps 665 mmHg 51%
    17:00 +4°C° 0 mm 3 mps 665 mmHg 54%
    18:00 +3°C° 0 mm 2 mps 665 mmHg 57%
    19:00 +3°C° 0 mm 2 mps 665 mmHg 56%
    20:00 +2°C° 0 mm 2 mps 666 mmHg 56%
    21:00 +2°C° 0 mm 2 mps 666 mmHg 56%
    22:00 +3°C° 0 mm 1 mps 666 mmHg 56%
    23:00 +3°C° 0 mm 1 mps 666 mmHg 55%

    29 March, Friday

    Time Temperature Precipitation Wind Pressure Humidity
    00:00 +3°C° 0 mm 1 mps 666 mmHg 55%
    01:00 +3°C° 0 mm 1 mps 666 mmHg 56%
    02:00 +3°C° 0 mm 1 mps 666 mmHg 56%
    03:00 +3°C° 0 mm 1 mps 666 mmHg 57%
    04:00 +3°C° 0 mm 1 mps 666 mmHg 57%
    05:00 +3°C° 0 mm 1 mps 666 mmHg 57%
    06:00 +3°C° 0 mm 1 mps 666 mmHg 57%
    07:00 +4°C° 0 mm 1 mps 667 mmHg 52%
    08:00 +5°C° 0 mm 2 mps 667 mmHg 48%
    09:00 +6°C° 0 mm 2 mps 668 mmHg 43%
    10:00 +7°C° 0 mm 3 mps 668 mmHg 43%
    11:00 +9°C° 0 mm 3 mps 667 mmHg 42%
    12:00 +10°C° 0 mm 3 mps 667 mmHg 41%
    13:00 +9°C° 0.1 mm 3 mps 667 mmHg 47%
    14:00 +9°C° 0.1 mm 3 mps 666 mmHg 52%
    15:00 +8°C° 0.1 mm 3 mps 666 mmHg 57%
    16:00 +7°C° 0.2 mm 3 mps 665 mmHg 62%
    17:00 +6°C° 0.2 mm 2 mps 665 mmHg 66%
    18:00 +4°C° 0.2 mm 2 mps 665 mmHg 71%
    19:00 +4°C° 0.1 mm 2 mps 665 mmHg 74%
    20:00 +3°C° 0.1 mm 2 mps 664 mmHg 76%
    21:00 +2°C° 0.1 mm 2 mps 664 mmHg 79%
    22:00 +3°C° 0.3 mm 2 mps 664 mmHg 79%
    23:00 +3°C° 0.3 mm 2 mps 664 mmHg 79%

    30 March, Saturday

    Time Temperature Precipitation Wind Pressure Humidity
    00:00 +3°C° 0.3 mm 2 mps 664 mmHg 80%
    01:00 +2°C° 0.1 mm 2 mps 664 mmHg 79%
    02:00 +2°C° 0.1 mm 2 mps 663 mmHg 78%
    03:00 +1°C° 0.1 mm 2 mps 663 mmHg 77%
    04:00 -1°C° 0 mm 2 mps 663 mmHg 75%
    05:00 -1°C° 0 mm 2 mps 663 mmHg 73%
    06:00 -2°C° 0 mm 2 mps 663 mmHg 72%
    07:00 +1°C° 0 mm 2 mps 664 mmHg 61%
    08:00 +4°C° 0 mm 2 mps 665 mmHg 49%
    09:00 +6°C° 0 mm 2 mps 666 mmHg 38%
    10:00 +7°C° 0 mm 2 mps 666 mmHg 36%
    11:00 +8°C° 0 mm 2 mps 667 mmHg 33%
    12:00 +9°C° 0 mm 2 mps 667 mmHg 30%
    13:00 +9°C° 0 mm 2 mps 667 mmHg 30%
    14:00 +8°C° 0 mm 2 mps 666 mmHg 31%
    15:00 +8°C° 0 mm 2 mps 666 mmHg 31%
    16:00 +6°C° 0 mm 2 mps 666 mmHg 37%
    17:00 +4°C° 0 mm 2 mps 666 mmHg 43%
    18:00 +3°C° 0 mm 1 mps 666 mmHg 48%
    19:00 +3°C° 0 mm 1 mps 666 mmHg 52%
    20:00 +2°C° 0 mm 1 mps 666 mmHg 55%
    21:00 +1°C° 0 mm 1 mps 667 mmHg 59%
    22:00 +1°C° 0 mm 1 mps 667 mmHg 61%
    23:00 0°C° 0 mm 1 mps 666 mmHg 63%
    Show more